Location: Berg
(47.2344°N, 9.5296°E)
Time: 17:24:38
(UTC+00:00)

AAUSAT CUBESAT 2 - Pass Details

Date: 30 November 2021
Orbit: 572 x 586 km, 97.5° (Epoch: 16 January)

Event Time Altitude Azimuth Distance (km) Brightness Sun altitude
Rises 15:59:19 0° 180° (S) 2,771 ? -4.5°
Reaches altitude 10° 16:01:31 10° 186° (S) 1,876 ? -4.9°
Maximum altitude 16:05:27 47° 261° (W) 761 ? -5.4°
Drops below altitude 10° 16:09:25 10° 336° (NNW) 1,888 ? -6.1°
Sets 16:11:38 0° 342° (NNW) 2,791 ? -6.4°
